| time (UTC) | temp F | wind direction | speed knots | gust knots | rain 1hr in | rain 24hr in | rain mn in | humidity % | barometer mb |
| 20260508231558 | 49 | 0 | 0.0 | 0.9 | 0.00 | 0.00 | 0.00 | 77 | 1027.3 |
| 20260508230057 | 48 | 0 | 0.0 | 0.9 | 0.00 | 0.00 | 0.00 | 78 | 1027.1 |
| 20260508224558 | 47 | 0 | 0.0 | 1.7 | 0.00 | 0.00 | 0.00 | 79 | 1027.0 |
| 20260508223057 | 46 | 0 | 0.0 | 0.0 | 0.00 | 0.00 | 0.00 | 79 | 1026.8 |
| 20260508221553 | 46 | 0 | 0.0 | 0.0 | 0.00 | 0.00 | 0.00 | 77 | 1026.9 |
| 20260508220059 | 47 | 0 | 0.0 | 0.0 | 0.00 | 0.00 | 0.00 | 75 | 1027.1 |
| 20260508214607 | 48 | 0 | 0.0 | 0.0 | 0.00 | 0.00 | 0.00 | 74 | 1027.0 |
| 20260508213053 | 49 | 0 | 0.0 | 0.0 | 0.00 | 0.00 | 0.00 | 73 | 1026.9 |
| 20260508211558 | 50 | 0 | 0.0 | 0.0 | 0.00 | 0.00 | 0.00 | 71 | 1026.9 |
| 20260508210056 | 51 | 0 | 0.0 | 0.9 | 0.00 | 0.00 | 0.00 | 71 | 1026.7 |
| 20260508204556 | 50 | 0 | 0.0 | 0.0 | 0.00 | 0.00 | 0.00 | 70 | 1026.5 |
| 20260508203056 | 52 | 0 | 0.0 | 0.9 | 0.00 | 0.00 | 0.00 | 67 | 1026.3 |
| 20260508201557 | 53 | 314 | 0.0 | 1.7 | 0.00 | 0.00 | 0.00 | 65 | 1026.3 |
| 20260508200054 | 55 | 0 | 0.0 | 0.9 | 0.00 | 0.00 | 0.00 | 62 | 1026.1 |
| 20260508194555 | 56 | 0 | 0.0 | 1.7 | 0.00 | 0.00 | 0.00 | 60 | 1026.1 |
| 20260508193107 | 56 | 0 | 0.0 | 1.7 | 0.00 | 0.00 | 0.00 | 59 | 1026.0 |
| 20260508191557 | 56 | 0 | 0.0 | 1.7 | 0.00 | 0.00 | 0.00 | 59 | 1026.0 |
| 20260508190106 | 57 | 75 | 0.0 | 0.9 | 0.00 | 0.00 | 0.00 | 59 | 1025.9 |
| 20260508184602 | 57 | 0 | 0.0 | 1.7 | 0.00 | 0.00 | 0.00 | 58 | 1026.0 |
| 20260508183111 | 58 | 0 | 0.0 | 3.5 | 0.00 | 0.00 | 0.00 | 56 | 1026.1 |
| 20260508181552 | 58 | 0 | 0.0 | 7.8 | 0.00 | 0.00 | 0.00 | 56 | 1026.0 |
| 20260508174606 | 59 | 64 | 0.0 | 2.6 | 0.00 | 0.00 | 0.00 | 55 | 1026.0 |
| 20260508173056 | 59 | 0 | 0.0 | 5.2 | 0.00 | 0.00 | 0.00 | 54 | 1025.9 |
| 20260508171553 | 60 | 56 | 0.9 | 7.0 | 0.00 | 0.00 | 0.00 | 54 | 1026.0 |
| 20260508170104 | 60 | 0 | 0.9 | 6.1 | 0.00 | 0.00 | 0.00 | 53 | 1026.0 |
| 20260508164600 | 60 | 17 | 0.9 | 3.5 | 0.00 | 0.00 | 0.00 | 53 | 1026.1 |
| 20260508163054 | 60 | 115 | 0.9 | 2.6 | 0.00 | 0.00 | 0.00 | 53 | 1026.0 |
| 20260508161605 | 59 | 76 | 0.0 | 2.6 | 0.00 | 0.00 | 0.00 | 54 | 1025.9 |
| 20260508160056 | 56 | 0 | 0.0 | 0.9 | 0.00 | 0.00 | 0.00 | 60 | 1025.9 |
| 20260508154553 | 58 | 0 | 0.0 | 1.7 | 0.00 | 0.00 | 0.00 | 56 | 1026.0 |
| 20260508153057 | 59 | 0 | 0.0 | 0.9 | 0.00 | 0.00 | 0.00 | 54 | 1026.1 |
| 20260508151555 | 60 | 0 | 0.0 | 0.9 | 0.00 | 0.00 | 0.00 | 52 | 1026.1 |
| 20260508150055 | 61 | 0 | 0.0 | 1.7 | 0.00 | 0.00 | 0.00 | 50 | 1026.1 |
| 20260508144553 | 61 | 0 | 0.0 | 4.3 | 0.00 | 0.00 | 0.00 | 50 | 1026.1 |
| 20260508143059 | 61 | 68 | 0.0 | 2.6 | 0.00 | 0.00 | 0.00 | 53 | 1026.2 |
| 20260508141603 | 58 | 0 | 0.0 | 3.5 | 0.00 | 0.00 | 0.00 | 60 | 1026.2 |
| 20260508140054 | 54 | 0 | 0.0 | 0.0 | 0.00 | 0.00 | 0.00 | 68 | 1026.1 |
| 20260508134554 | 57 | 0 | 0.0 | 0.0 | 0.00 | 0.00 | 0.00 | 64 | 1026.3 |
| 20260508133053 | 58 | 0 | 0.0 | 0.0 | 0.00 | 0.00 | 0.00 | 63 | 1026.2 |
| 20260508131607 | 59 | 0 | 0.0 | 0.9 | 0.00 | 0.00 | 0.00 | 59 | 1026.1 |
| 20260508130057 | 60 | 0 | 0.0 | 2.6 | 0.00 | 0.00 | 0.00 | 58 | 1026.2 |
| 20260508124552 | 60 | 0 | 0.0 | 0.9 | 0.00 | 0.00 | 0.00 | 58 | 1026.1 |
| 20260508123115 | 61 | 0 | 0.0 | 1.7 | 0.00 | 0.00 | 0.00 | 57 | 1026.0 |
| 20260508121608 | 62 | 0 | 0.0 | 1.7 | 0.00 | 0.00 | 0.00 | 55 | 1025.9 |
| 20260508120107 | 63 | 109 | 0.0 | 1.7 | 0.00 | 0.00 | 0.00 | 55 | 1026.0 |
| 20260508114600 | 63 | 0 | 0.0 | 1.7 | 0.00 | 0.00 | 0.00 | 54 | 1025.9 |
| 20260508113107 | 63 | 57 | 0.0 | 3.5 | 0.00 | 0.00 | 0.00 | 54 | 1026.0 |
| 20260508111556 | 63 | 0 | 0.0 | 2.6 | 0.00 | 0.00 | 0.00 | 54 | 1025.9 |
| 20260508110106 | 63 | 0 | 0.0 | 2.6 | 0.00 | 0.00 | 0.00 | 54 | 1026.0 |
| 20260508104551 | 63 | 0 | 0.0 | 1.7 | 0.00 | 0.00 | 0.00 | 55 | 1026.0 |
| 20260508103104 | 64 | 0 | 0.0 | 0.0 | 0.00 | 0.00 | 0.00 | 52 | 1025.9 |
| 20260508101558 | 66 | 0 | 0.0 | 2.6 | 0.00 | 0.00 | 0.00 | 50 | 1025.8 |
| 20260508100059 | 67 | 0 | 0.0 | 2.6 | 0.00 | 0.00 | 0.00 | 48 | 1025.7 |
| 20260508094551 | 68 | 40 | 0.9 | 3.5 | 0.00 | 0.00 | 0.00 | 47 | 1025.6 |
| 20260508093104 | 68 | 0 | 0.9 | 3.5 | 0.00 | 0.00 | 0.00 | 48 | 1025.6 |
| 20260508091557 | 69 | 0 | 0.9 | 6.1 | 0.00 | 0.00 | 0.00 | 47 | 1025.5 |
| 20260508084558 | 70 | 0 | 0.0 | 5.2 | 0.00 | 0.00 | 0.00 | 44 | 1025.2 |
| 20260508083103 | 71 | 58 | 0.9 | 4.3 | 0.00 | 0.00 | 0.00 | 45 | 1025.2 |
| 20260508081601 | 71 | 101 | 0.9 | 7.0 | 0.00 | 0.00 | 0.00 | 44 | 1025.1 |
| 20260508080056 | 72 | 57 | 0.9 | 5.2 | 0.00 | 0.00 | 0.00 | 44 | 1025.2 |
| 20260508074554 | 72 | 78 | 1.7 | 5.2 | 0.00 | 0.00 | 0.00 | 44 | 1025.2 |
| 20260508073055 | 73 | 202 | 0.9 | 5.2 | 0.00 | 0.00 | 0.00 | 44 | 1025.2 |
| 20260508071558 | 74 | 58 | 0.9 | 9.6 | 0.00 | 0.00 | 0.00 | 44 | 1025.2 |
| 20260508070059 | 74 | 164 | 0.9 | 6.1 | 0.00 | 0.00 | 0.00 | 43 | 1025.2 |
| 20260508064555 | 74 | 104 | 0.9 | 7.0 | 0.00 | 0.00 | 0.00 | 44 | 1025.4 |
| 20260508063103 | 74 | 30 | 0.9 | 6.1 | 0.00 | 0.00 | 0.00 | 44 | 1025.5 |
| 20260508062126 | 74 | 0 | 0.9 | 8.7 | 0.00 | 0.00 | 0.00 | 44 | 1025.5 |
| 20260508053106 | 74 | 36 | 0.0 | 5.2 | 0.00 | 0.00 | 0.00 | 47 | 1026.1 |
| 20260508051554 | 73 | 0 | 0.9 | 7.0 | 0.00 | 0.00 | 0.00 | 47 | 1026.3 |
| 20260508044554 | 72 | 334 | 1.7 | 7.8 | 0.00 | 0.00 | 0.00 | 49 | 1026.7 |
| 20260508043100 | 71 | 313 | 0.9 | 8.7 | 0.00 | 0.00 | 0.00 | 48 | 1026.9 |
| 20260508041602 | 71 | 271 | 0.9 | 4.3 | 0.00 | 0.00 | 0.00 | 49 | 1027.3 |
| 20260508040052 | 71 | 0 | 0.9 | 4.3 | 0.00 | 0.00 | 0.00 | 51 | 1027.6 |
| 20260508034611 | 71 | 360 | 0.9 | 4.3 | 0.00 | 0.00 | 0.00 | 51 | 1027.9 |
| 20260508033058 | 70 | 314 | 0.9 | 5.2 | 0.00 | 0.00 | 0.00 | 52 | 1028.3 |
| 20260508031557 | 69 | 70 | 0.9 | 5.2 | 0.00 | 0.00 | 0.00 | 54 | 1028.4 |
| 20260508030054 | 68 | 288 | 0.9 | 5.2 | 0.00 | 0.00 | 0.00 | 54 | 1028.7 |
| 20260508024555 | 67 | 83 | 0.9 | 5.2 | 0.00 | 0.00 | 0.00 | 56 | 1028.8 |
| 20260508023056 | 66 | 0 | 0.9 | 3.5 | 0.00 | 0.00 | 0.00 | 59 | 1028.9 |
| 20260508021600 | 65 | 144 | 0.0 | 3.5 | 0.00 | 0.00 | 0.00 | 60 | 1029.1 |
| 20260508020100 | 64 | 0 | 0.9 | 6.1 | 0.00 | 0.00 | 0.00 | 62 | 1029.1 |
| 20260508014556 | 64 | 31 | 0.9 | 7.8 | 0.00 | 0.00 | 0.00 | 63 | 1029.3 |
| 20260508013057 | 63 | 231 | 0.9 | 4.3 | 0.00 | 0.00 | 0.00 | 65 | 1029.5 |
| 20260508011603 | 62 | 0 | 0.0 | 4.3 | 0.00 | 0.00 | 0.00 | 68 | 1029.6 |
| 20260508010056 | 60 | 0 | 0.9 | 7.0 | 0.00 | 0.00 | 0.00 | 69 | 1029.8 |
| 20260508004553 | 59 | 104 | 0.0 | 3.5 | 0.00 | 0.00 | 0.00 | 71 | 1030.0 |
| 20260508003057 | 58 | 0 | 0.9 | 4.3 | 0.00 | 0.00 | 0.00 | 72 | 1030.0 |
| 20260508001613 | 57 | 83 | 0.0 | 2.6 | 0.00 | 0.00 | 0.00 | 73 | 1030.0 |
| 20260508000055 | 56 | 0 | 0.0 | 2.6 | 0.00 | 0.00 | 0.00 | 74 | 1030.0 |
| 20260507234553 | 55 | 80 | 0.0 | 3.5 | 0.00 | 0.00 | 0.00 | 75 | 1029.9 |
| 20260507233052 | 54 | 84 | 0.9 | 2.6 | 0.00 | 0.00 | 0.00 | 75 | 1029.6 |